Simultaneous Nadir Overpasses (SNOs) Predictions

Prediction of SNOs between GOES-15 and LANDSAT-8 Satellite Orbit:

Table of predicted SNOs for the next 14.0 days since TLE Epoch: 8/1/2025
Index Date Time (GOES-15) GOES-15 Lat,Lon LANDSAT-8 Lat,Lon Distance(km) Time Diff (sec)
1 08/02/2025 17:47:20 -0.12, 61.48 0.79, 65.79 489.55 80
2 08/03/2025 06:11:14 0.18, 61.40 0.37, 60.64 86.79 80
3 08/05/2025 05:56:25 0.17, 61.43 -0.30, 63.59 245.38 80
4 08/05/2025 18:20:28 -0.22, 61.53 -0.90, 58.41 354.53 80
5 08/07/2025 18:08:18 -0.21, 61.57 -0.28, 61.37 23.04 80
6 08/09/2025 17:53:28 -0.19, 61.61 0.36, 64.32 308.36 80
7 08/10/2025 06:17:24 0.24, 61.53 0.73, 59.16 268.28 80
8 08/12/2025 06:02:34 0.23, 61.57 0.09, 62.12 62.83 80
9 08/14/2025 05:50:23 0.22, 61.62 -0.50, 65.08 393.58 80
10 08/14/2025 18:14:26 -0.27, 61.72 -0.68, 59.91 206.67 80
